1504681200.64,49212,13.94,73722.0,4.55,6.29,6.43,0,*79
1504681201.84,49213,14.0,73724.3,4.57,5.99,6.13,0,*77
1504681203.06,49214,14.0,73726.8,4.61,6.33,6.35,0,*72
1504681204.29,49215,14.0,73720.8,4.61,6.57,6.65,0,*74
1504681205.5,49216,14.0,73722.0,4.63,6.25,6.29,0,*78
1504681206.72,49217,14.0,73722.0,4.65,6.17,6.17,0,*73
1504681207.97,49218,14.0,73722.3,4.67,6.53,6.53,0,*7E
1504681209.22,49219,14.0,73718.3,4.67,6.13,6.13,0,*7F
1504681210.43,49220,14.0,73718.3,4.69,6.33,6.35,0,*7D
1504681211.66,49221,14.0,73718.8,4.73,6.39,6.51,0,*7F
1504681212.85,49222,14.0,73718.8,4.73,6.21,6.21,0,*72
1504681214.08,49223,14.0,73718.8,4.73,6.47,6.47,0,*73
1504681215.31,49224,14.0,73718.3,4.75,6.69,6.79,0,*73
1504681216.54,49225,14.0,73718.8,4.77,6.61,6.65,0,*75
1504681217.77,49226,14.0,73722.0,4.77,6.87,6.87,0,*72
1504681218.96,49227,14.0,73720.8,4.79,7.01,7.01,0,*7D
1504681220.16,49228,14.0,73720.8,4.85,6.73,6.79,0,*7B
1504681221.42,49229,14.0,73720.3,4.87,6.39,6.51,0,*7C
1504681222.67,49230,14.0,73722.8,4.87,6.61,6.73,0,*79
1504681223.87,49231,14.0,73720.8,4.87,6.83,6.83,0,*7B
1504681225.12,49232,14.0,73720.8,4.91,6.65,6.69,0,*73
1504681226.31,49233,14.0,73718.5,4.89,6.83,6.87,0,*73
1504681227.55,49234,14.0,73718.5,4.93,7.09,7.11,0,*72
1504681228.78,49235,14.0,73718.3,4.95,7.19,7.27,0,*71
1504681230.03,49236,14.0,73718.8,4.97,7.15,7.27,0,*7C
1504681231.24,49237,14.0,73720.0,4.99,7.55,7.65,0,*71
1504681232.42,49238,14.0,73724.3,4.99,7.45,7.55,0,*7C
1504681233.62,49239,14.0,73720.8,5.03,6.87,7.01,0,*71
1504681234.85,49240,14.0,73714.5,5.03,6.87,6.91,0,*77
1504681236.06,49241,14.0,73716.0,5.07,7.27,7.37,0,*74
1504681237.29,49242,14.0,73720.3,5.09,7.59,7.73,0,*70
1504681238.49,49243,14.0,73718.3,5.09,6.79,6.83,0,*7C
1504681239.69,49244,14.0,73714.8,5.13,6.11,6.11,0,*75
1504681240.86,49245,14.0,73718.0,5.11,5.37,5.45,0,*73
1504681242.04,49246,14.0,73714.8,5.11,5.59,5.67,0,*78
1504681243.21,49247,14.0,73714.0,5.11,6.83,6.93,0,*75
1504681244.44,49248,14.0,73718.5,5.11,6.57,6.65,0,*7A
1504681245.69,49249,14.0,73714.8,5.13,6.51,6.53,0,*7A
1504681246.88,49250,14.0,73718.8,5.13,5.29,5.29,0,*70
1504681248.13,49251,14.0,73718.0,5.13,5.89,5.89,0,*71
1504681249.37,49252,14.0,73712.0,5.13,6.53,6.61,0,*73
1504681250.57,49253,14.0,73718.0,5.15,7.09,7.11,0,*7C
1504681251.76,49254,14.0,73716.5,5.15,6.33,6.33,0,*72
1504681253.03,49255,14.0,73712.3,5.17,6.35,6.43,0,*70
1504681254.26,49256,14.0,73714.3,5.17,6.35,6.33,0,*74
1504681255.52,49257,14.0,73718.0,5.17,4.75,4.71,0,*77
1504681256.73,49258,14.0,73718.8,5.17,3.93,3.93,0,*7C
1504681257.99,49259,14.0,73712.5,5.13,3.75,3.75,0,*79
1504681259.16,49260,14.0,73714.8,5.11,4.41,4.37,0,*70
1504681260.34,49261,14.0,73712.5,5.11,4.27,4.19,0,*7D
1504681261.52,49262,14.0,73710.8,5.11,4.41,4.41,0,*73
1504681262.71,49263,14.0,73716.5,5.07,5.19,5.11,0,*7D
1504681263.89,49264,14.0,73712.3,5.07,5.63,5.63,0,*72
1504681265.1,49265,14.0,73714.5,5.09,5.19,5.19,0,*7D
1504681266.34,49266,14.0,73712.5,5.09,5.77,5.77,0,*7E
1504681267.56,49267,14.0,73714.5,5.11,6.57,6.61,0,*73
1504681268.77,49268,14.0,73718.0,5.13,6.21,6.33,0,*78
1504681270.01,49269,14.0,73716.0,5.13,6.43,6.53,0,*7B
1504681271.19,49270,14.0,73716.3,5.15,6.07,6.07,0,*74
1504681272.39,49271,14.0,73716.0,5.13,6.07,6.11,0,*74
1504681273.59,49272,14.0,73714.0,5.15,5.41,5.51,0,*77
1504681274.82,49273,14.0,73714.8,5.15,4.67,4.67,0,*77
1504681276.03,49274,14.0,73714.0,5.11,4.37,4.31,0,*72
1504681277.25,49275,14.0,73718.3,5.13,4.63,4.89,0,*73
1504681278.47,49276,14.0,73714.5,5.11,5.81,5.81,0,*76
1504681279.7,49277,14.0,73712.8,5.11,6.13,6.17,0,*73
1504681280.92,49278,14.0,73716.3,5.11,6.61,6.73,0,*7B
1504681282.1,49279,14.0,73718.0,5.15,6.79,6.79,0,*7D
1504681283.32,49280,14.0,73720.0,5.15,6.61,6.65,0,*7F
1504681284.55,49281,14.0,73718.8,5.17,6.91,6.93,0,*7A
1504681285.78,49282,14.0,73718.8,5.17,6.79,6.91,0,*7D
1504681287.02,49283,14.0,73720.0,5.17,7.11,7.23,0,*7B
1504681288.24,49284,14.0,73722.8,5.23,6.61,6.69,0,*72
1504681289.47,49285,14.0,73720.5,5.23,6.39,6.51,0,*75
1504681290.65,49286,14.0,73724.0,5.23,6.29,6.29,0,*78
1504681291.88,49287,14.0,73722.0,5.25,5.85,5.93,0,*78
1504681293.11,49288,14.0,73720.5,5.23,4.97,5.01,0,*78
1504681294.28,49289,14.0,73718.5,5.23,5.37,5.37,0,*77
1504681295.48,49290,14.0,73720.3,5.23,3.25,3.23,0,*79
1504681296.68,49291,14.0,73708.3,5.19,2.47,2.35,0,*72
1504681297.89,49292,14.0,73700.0,5.15,3.97,3.89,0,*77
1504681299.07,49293,14.0,73710.5,5.15,5.95,5.99,0,*75
1504681300.33,49294,14.0,73712.5,5.17,4.93,4.93,0,*7C
1504681301.53,49295,14.0,73704.8,5.15,3.85,3.71,0,*74
1504681302.73,49296,14.0,73700.8,5.13,4.49,4.57,0,*75
1504681303.9,49297,14.0,73710.3,5.11,3.59,3.59,0,*79
1504681305.16,49298,14.0,73708.3,5.09,3.79,3.79,0,*7F
1504681306.36,49299,14.0,73706.5,5.07,3.29,3.19,0,*73
1504681307.59,49300,14.0,73706.5,5.07,4.05,4.05,0,*71
1504681308.77,49301,14.0,73708.3,5.07,4.15,4.23,0,*75
1504681309.94,49302,14.0,73710.8,5.03,4.23,4.19,0,*7E
1504681311.11,49303,14.0,73710.0,5.07,4.49,4.49,0,*72
1504681312.31,49304,14.0,73708.3,5.01,4.49,4.45,0,*7F
1504681313.51,49305,14.0,73710.3,5.01,4.19,4.11,0,*7A
1504681314.77,49306,14.0,73712.0,5.01,2.43,2.43,0,*71
1504681315.97,49307,14.0,73712.3,4.97,3.89,3.93,0,*75
1504681317.18,49308,14.0,73710.5,4.97,4.11,4.11,0,*71
1504681318.39,49309,14.0,73712.8,4.95,4.31,4.37,0,*74
1504681319.6,49310,14.0,73712.8,4.95,5.11,4.97,0,*75
1504681320.79,49311,14.0,73712.8,4.95,4.49,4.41,0,*73
1504681322.05,49312,14.0,73712.3,4.93,3.41,3.41,0,*7E
1504681323.26,49313,14.0,73710.3,4.93,3.29,3.29,0,*7F
1504681324.45,49314,14.0,73708.8,4.95,4.37,4.45,0,*7B
1504681325.65,49315,14.0,73706.5,4.91,5.49,5.41,0,*73
1504681326.9,49316,14.0,73710.5,4.93,5.85,5.89,0,*76
1504681328.11,49317,14.0,73708.0,4.95,6.13,6.25,0,*78
1504681329.3,49318,14.0,73704.5,4.95,6.21,6.25,0,*76
1504681330.53,49319,14.0,73704.5,4.99,5.81,5.93,0,*7C
1504681331.74,49320,14.0,73710.0,4.99,6.07,6.17,0,*74
1504681332.99,49321,14.0,73718.8,5.01,5.89,5.89,0,*74
1504681334.2,49322,14.0,73714.5,5.03,5.05,5.07,0,*77
1504681335.38,49323,14.0,73714.0,5.03,4.57,4.57,0,*74
1504681336.6,49324,14.0,73708.0,5.01,4.37,4.37,0,*71
1504681337.79,49325,14.0,73710.5,5.01,3.63,3.63,0,*70
1504681339.0,49326,14.0,73706.5,4.99,3.37,3.25,0,*70
1504681340.23,49327,14.0,73706.8,4.97,4.01,3.93,0,*70
1504681341.49,49328,14.0,73706.5,4.97,4.93,4.97,0,*77
1504681342.72,49329,14.0,73710.0,4.97,4.81,4.75,0,*79
1504681343.97,49330,14.0,73704.3,4.97,4.59,4.59,0,*7A
1504681345.17,49331,14.0,73704.5,4.97,4.23,4.15,0,*7E
1504681346.42,49332,14.0,73710.3,4.95,4.97,5.01,0,*74
1504681347.68,49333,14.0,73708.0,4.93,4.79,4.71,0,*75
1504681348.89,49334,14.0,73712.0,4.93,4.23,4.23,0,*7A
1504681350.09,49335,14.0,73710.8,4.93,4.19,4.19,0,*7B
1504681351.33,49336,14.0,73710.8,4.95,4.59,4.63,0,*77
1504681352.55,49337,14.0,73710.0,4.93,4.37,4.33,0,*7D
1504681353.75,49338,14.0,73706.5,4.93,4.49,4.49,0,*76
1504681354.96,49339,14.0,73708.0,4.93,4.45,4.33,0,*76
1504681356.17,49340,14.0,73706.5,4.93,4.27,4.23,0,*7D
1504681357.37,49341,14.0,73708.0,4.91,4.11,4.19,0,*72
1504681358.57,49342,14.0,73714.8,4.91,4.11,4.07,0,*7E
1504681359.74,49343,14.0,73712.0,4.89,3.93,3.85,0,*76
1504681360.92,49344,14.0,73714.3,4.89,3.93,3.93,0,*76
1504681362.15,49345,14.0,73718.3,4.87,3.59,3.49,0,*78
1504681363.33,49346,14.0,73716.5,4.85,3.59,3.59,0,*78
1504681364.55,49347,14.0,73716.3,4.85,3.71,3.67,0,*7E
1504681365.78,49348,14.0,73714.8,4.85,4.05,4.01,0,*72
1504681367.01,49349,14.0,73718.0,4.85,4.63,4.63,0,*77
1504681368.21,49350,14.06,73722.0,4.87,4.89,4.89,0,*7D
1504681369.45,49351,14.0,73714.5,4.85,4.97,4.97,0,*7E
1504681370.63,49352,14.0,73712.0,4.85,5.07,5.11,0,*7A
1504681371.8,49353,14.0,73712.8,4.85,5.41,5.41,0,*7C
1504681372.98,49354,14.0,73718.0,4.85,5.59,5.59,0,*7B
1504681374.15,49355,14.0,73712.3,4.89,5.33,5.45,0,*77
1504681375.35,49356,14.06,73718.3,4.89,5.27,5.33,0,*70
1504681376.52,49357,14.0,73712.5,4.89,5.15,5.11,0,*70
1504681377.76,49358,14.0,73718.0,4.89,5.01,5.01,0,*7B
1504681378.93,49359,14.0,73718.5,4.89,5.11,5.15,0,*7E
1504681380.15,49360,14.0,73718.5,4.89,5.27,5.27,0,*70
1504681381.33,49361,14.0,73720.5,4.89,5.23,5.23,0,*71
1504681382.52,49362,14.0,73720.0,4.89,5.27,5.37,0,*73
1504681383.75,49363,14.0,73718.3,4.91,5.19,5.27,0,*77
1504681384.93,49364,14.0,73718.8,4.89,5.15,5.19,0,*78
1504681386.14,49365,14.0,73720.0,4.91,5.63,5.59,0,*75
1504681387.35,49366,14.0,73716.0,4.93,6.21,6.21,0,*7D
1504681388.54,49367,14.0,73722.5,4.95,6.25,6.25,0,*7A
1504681389.78,49368,14.0,73720.5,4.97,5.93,5.99,0,*7D
1504681391.0,49369,14.0,73718.3,4.97,5.77,5.71,0,*70
1504681392.21,49370,14.0,73714.3,4.97,5.11,5.11,0,*7E
1504681393.41,49371,14.0,73716.0,4.99,4.31,4.27,0,*76
1504681394.61,49372,14.0,73708.5,4.97,4.85,4.81,0,*78
1504681395.84,49373,14.0,73698.8,4.97,4.15,4.05,0,*7C
1504681397.07,49374,14.0,73694.5,4.97,4.59,4.53,0,*70
1504681398.29,49375,14.0,73694.3,4.95,5.07,5.01,0,*7F
1504681399.49,49376,14.0,73694.3,4.95,5.55,5.45,0,*7B
1504681400.67,49377,14.0,73692.3,4.95,5.41,5.41,0,*7B
1504681401.88,49378,14.0,73690.8,4.95,5.01,5.07,0,*72
1504681403.06,49379,14.0,73694.0,4.95,5.45,5.45,0,*75
1504681404.24,49380,14.06,73692.3,4.95,5.41,5.41,0,*73
1504681405.41,49381,14.0,73688.3,4.99,5.49,5.49,0,*7E
1504681406.6,49382,14.0,73692.8,4.99,5.07,5.07,0,*7D
1504681407.79,49383,14.0,73694.3,4.99,5.19,5.11,0,*74
1504681409.0,49384,14.0,73694.8,4.97,5.67,5.67,0,*75
1504681410.17,49385,14.0,73694.5,4.99,5.45,5.49,0,*76
1504681411.39,49386,14.0,73696.5,4.97,5.45,5.51,0,*72
1504681412.57,49387,14.0,73696.5,5.03,5.41,5.49,0,*72
1504681413.82,49388,14.0,73696.0,5.01,5.85,5.85,0,*77
1504681415.02,49389,14.0,73700.3,5.01,6.07,6.07,0,*76
1504681416.24,49390,14.0,73702.5,5.03,5.77,5.85,0,*71
1504681417.42,49391,14.06,73706.0,5.03,5.99,6.07,0,*79
1504681418.59,49392,14.06,73706.5,5.03,6.07,6.07,0,*7E
1504681419.8,49393,14.0,73704.3,5.09,6.25,6.21,0,*71
1504681421.01,49394,14.0,73710.8,5.09,6.25,6.25,0,*72
1504681422.22,49395,14.0,73710.3,5.09,6.33,6.33,0,*73
1504681423.43,49396,14.0,73712.5,5.11,6.29,6.35,0,*74
1504681424.63,49397,14.0,73708.0,5.11,4.63,4.53,0,*7B
1504681425.87,49398,14.0,73710.3,5.11,3.75,3.71,0,*73
1504681427.05,49399,14.0,73710.5,5.07,3.93,3.89,0,*7A
1504681428.23,49400,14.0,73710.5,5.07,4.23,4.23,0,*76
1504681429.41,49401,14.06,73714.0,5.07,3.93,3.93,0,*77
1504681430.67,49402,14.0,73714.3,5.01,3.75,3.79,0,*7E
1504681431.9,49403,14.0,73718.0,5.03,3.53,3.49,0,*7A
1504681433.15,49404,14.0,73714.8,5.01,3.79,3.75,0,*78
1504681434.36,49405,14.0,73712.3,4.99,3.81,3.75,0,*7E
1504681435.61,49406,14.06,73710.5,4.97,3.71,3.67,0,*7F
1504681436.84,49407,14.06,73710.8,4.95,3.19,3.11,0,*73
1504681438.09,49408,14.0,73704.5,4.93,2.73,2.69,0,*79
1504681439.32,49409,14.06,73716.3,4.89,3.49,3.49,0,*78
1504681440.54,49410,14.06,73718.3,4.91,3.55,3.45,0,*78
1504681441.76,49411,14.06,73712.3,4.89,2.55,2.43,0,*76
1504681442.96,49412,14.06,73720.5,4.85,1.79,1.55,0,*70
1504681444.19,49413,14.06,73716.5,4.81,2.69,2.59,0,*78
1504681445.42,49414,14.06,73718.5,4.79,2.47,2.35,0,*7E
1504681446.62,49415,14.0,73716.5,4.77,2.43,2.31,0,*71
1504681447.83,49416,14.0,73718.8,4.75,2.65,2.65,0,*75
1504681449.06,49417,14.0,73714.3,4.75,2.95,2.77,0,*78
1504681450.29,49418,14.06,73710.5,4.73,3.79,3.67,0,*72
1504681451.51,49419,14.0,73704.5,4.73,3.45,3.37,0,*79
1504681452.69,49420,14.06,73708.3,4.73,4.19,4.19,0,*76
1504681453.92,49421,14.0,73706.5,4.73,4.71,4.79,0,*7F
1504681455.1,49422,14.06,73704.8,4.73,5.49,5.49,0,*74
1504681456.3,49423,14.0,73700.8,4.75,5.49,5.63,0,*7B
1504681457.49,49424,14.0,73702.3,4.77,6.03,6.11,0,*75
1504681458.67,49425,14.06,73700.5,4.77,6.29,6.29,0,*77
1504681459.9,49426,14.0,73702.5,4.85,6.39,6.51,0,*77
1504681461.16,49427,14.0,73702.0,4.87,6.39,6.47,0,*73
1504681462.4,49428,14.0,73700.3,4.87,6.25,6.35,0,*74
1504681463.63,49429,14.06,73704.3,4.89,6.39,6.51,0,*74
1504681464.86,49430,14.0,73704.5,4.93,6.65,6.75,0,*78
1504681466.07,49431,14.0,73706.3,4.95,6.73,6.79,0,*74
1504681467.32,49432,14.06,73710.8,4.97,6.57,6.69,0,*72
1504681468.54,49433,14.06,73712.3,4.99,6.61,6.53,0,*71
1504681469.8,49434,14.0,73708.8,5.01,6.43,6.51,0,*74
1504681471.01,49435,14.0,73704.5,5.01,4.57,4.57,0,*76
1504681472.26,49436,14.06,73704.8,5.01,2.85,2.81,0,*71
1504681473.51,49437,14.06,73710.8,4.97,2.01,2.05,0,*7E
1504681474.77,49438,14.06,73708.8,4.93,3.19,3.15,0,*7D
1504681476.03,49439,14.06,73704.0,4.93,3.75,3.75,0,*70
1504681477.26,49440,14.06,73700.8,4.91,3.67,3.63,0,*78
1504681478.48,49441,14.0,73696.3,4.91,4.57,4.59,0,*73
1504681479.65,49442,14.06,73702.5,4.89,5.29,5.29,0,*77
1504681480.85,49443,14.06,73708.5,4.91,5.37,5.41,0,*7E
1504681482.05,49444,14.06,73704.0,4.91,5.07,5.07,0,*78
1504681483.3,49445,14.06,73702.5,4.95,4.71,4.75,0,*79
1504681484.49,49446,14.06,73706.0,4.95,5.19,5.19,0,*7E
1504681485.67,49447,14.06,73698.5,4.95,5.63,5.63,0,*7F
1504681486.92,49448,14.06,73688.0,4.95,4.93,5.01,0,*7A
1504681488.15,49449,14.06,73690.0,4.95,4.75,4.75,0,*71
1504681489.41,49450,14.06,73696.0,4.93,3.97,4.01,0,*77
1504681490.62,49451,14.06,73698.5,4.93,4.23,4.23,0,*7E
1504681491.85,49452,14.06,73692.5,4.91,3.07,3.25,0,*7F
1504681493.05,49453,14.06,73700.3,4.91,4.23,4.23,0,*7E
1504681494.24,49454,14.06,73704.8,4.91,4.81,4.81,0,*79
1504681495.47,49455,14.0,73700.0,4.91,5.19,5.27,0,*75
1504681496.71,49456,14.06,73706.5,4.89,5.05,5.01,0,*76
1504681497.91,49457,14.0,73704.5,4.93,5.41,5.41,0,*78
1504681499.12,49458,14.06,73704.0,4.93,5.37,5.41,0,*76
1504681500.33,49459,14.06,73704.3,4.93,5.67,5.67,0,*76
1504681501.51,49460,14.06,73708.0,4.95,5.71,5.71,0,*7A
1504681502.7,49461,14.06,73710.0,4.95,5.33,5.23,0,*7A
1504681503.89,49462,14.06,73710.3,4.95,5.67,5.67,0,*78
1504681505.12,49463,14.06,73710.8,4.99,5.85,5.93,0,*72
1504681506.35,49464,14.06,73706.8,4.99,5.73,5.81,0,*7F
1504681507.54,49465,14.06,73710.5,4.99,6.03,6.07,0,*77
1504681508.79,49466,14.06,73712.8,5.01,5.89,5.89,0,*70
1504681509.99,49467,14.06,73708.5,5.01,6.07,6.11,0,*76
1504681511.18,49468,14.06,73712.8,5.03,5.99,5.99,0,*7C
1504681512.41,49469,14.06,73712.0,5.03,5.89,5.85,0,*71
1504681513.65,49470,14.06,73722.5,5.07,6.43,6.43,0,*71
1504681514.86,49471,14.06,73722.0,5.09,6.25,6.33,0,*79
1504681516.12,49472,14.06,73722.8,5.09,6.43,6.47,0,*79
1504681517.35,49473,14.06,73720.5,5.09,6.13,6.21,0,*7D
1504681518.56,49474,14.06,73716.3,5.09,5.99,6.03,0,*7B
1504681519.76,49475,14.06,73722.3,5.13,6.21,6.29,0,*79
1504681520.99,49476,14.06,73724.8,5.13,6.17,6.11,0,*74
1504681522.23,49477,14.06,73722.8,5.13,5.85,5.85,0,*73
1504681523.41,49478,14.06,73724.0,5.15,5.49,5.49,0,*7A
1504681524.63,49479,14.06,73722.5,5.15,5.51,5.51,0,*7B
1504681525.83,49480,14.06,73724.8,5.13,5.59,5.59,0,*7B
1504681527.08,49481,14.06,73724.5,5.13,5.85,5.85,0,*7A
1504681528.32,49482,14.06,73720.8,5.13,5.81,5.73,0,*74
1504681529.55,49483,14.06,73724.0,5.15,5.89,5.85,0,*72
1504681530.73,49484,14.06,73722.5,5.15,5.99,6.07,0,*7D
1504681531.94,49485,14.06,73722.5,5.17,6.21,6.33,0,*79
1504681533.17,49486,14.06,73722.3,5.19,5.89,5.89,0,*77
1504681534.39,49487,14.06,73720.8,5.17,5.23,5.23,0,*78
1504681535.56,49488,14.06,73722.0,5.19,5.15,5.33,0,*7D
1504681536.76,49489,14.06,73718.0,5.17,4.53,4.49,0,*7D
1504681538.0,49490,14.06,73720.5,5.15,5.05,5.01,0,*78
1504681539.27,49491,14.06,73724.3,5.17,4.71,4.71,0,*7F
1504681540.47,49492,14.06,73720.8,5.15,4.79,4.89,0,*71
1504681541.69,49493,14.06,73722.0,5.13,5.59,5.51,0,*71
1504681542.89,49494,14.06,73722.0,5.15,5.73,5.71,0,*7A
1504681544.12,49495,14.06,73722.8,5.15,5.85,5.85,0,*79
1504681545.32,49496,14.06,73722.0,5.15,5.85,5.95,0,*7B
1504681546.58,49497,14.06,73722.3,5.17,5.89,5.85,0,*75
1504681547.8,49498,14.06,73724.3,5.17,5.63,5.55,0,*73
1504681549.0,49499,14.06,73722.5,5.17,5.15,5.15,0,*77
1504681550.19,49500,14.06,73726.8,5.15,5.11,5.11,0,*74
1504681551.4,49501,14.06,73718.3,5.17,4.37,4.33,0,*73
1504681552.63,49502,14.06,73714.5,5.15,4.31,4.31,0,*76
1504681553.81,49503,14.06,73714.3,5.15,4.49,4.57,0,*78
1504681554.99,49504,14.06,73718.5,5.11,5.23,5.33,0,*75
1504681556.21,49505,14.06,73714.3,5.13,5.71,5.73,0,*75
1504681557.41,49506,14.06,73718.8,5.13,5.71,5.71,0,*74
1504681558.65,49507,14.06,73714.0,5.13,5.73,5.81,0,*78
1504681559.88,49508,14.06,73710.8,5.15,5.51,5.51,0,*7C
1504681561.12,49509,14.06,73702.3,5.15,4.71,4.71,0,*7D
1504681562.32,49510,14.06,73696.3,5.15,4.93,4.89,0,*7E
1504681563.54,49511,14.06,73700.0,5.15,5.27,5.27,0,*74
1504681564.8,49512,14.06,73712.8,5.13,4.71,4.75,0,*75
1504681566.06,49513,14.06,73714.8,5.13,4.71,4.71,0,*70
1504681567.3,49514,14.06,73712.3,5.13,5.05,5.11,0,*72
1504681568.47,49515,14.06,73712.8,5.11,3.93,3.85,0,*73
1504681569.69,49516,14.06,73714.3,5.11,3.49,3.37,0,*7E
1504681570.95,49517,14.06,73712.8,5.09,2.89,2.89,0,*7F
1504681572.18,49518,14.06,73718.3,5.03,3.23,3.07,0,*7C
1504681573.43,49519,14.06,73720.3,5.01,2.21,2.09,0,*73
1504681574.65,49520,14.06,73720.3,4.97,3.45,3.59,0,*70
1504681575.85,49521,14.06,73718.5,4.97,2.35,2.35,0,*7C
1504681577.08,49522,14.06,73708.3,4.93,2.47,2.35,0,*7E
1504681578.34,49523,14.06,73704.5,4.91,3.07,3.03,0,*7C
1504681579.51,49524,14.06,73706.5,4.89,3.59,3.59,0,*76
1504681580.72,49525,14.06,73714.0,4.91,4.33,4.33,0,*7E
1504681581.94,49526,14.06,73712.3,4.89,4.79,4.79,0,*74
1504681583.17,49527,14.06,73712.5,4.89,4.75,4.75,0,*75
1504681584.38,49528,14.06,73710.5,4.91,5.07,5.07,0,*73
1504681585.6,49529,14.06,73712.8,4.91,5.29,5.27,0,*7C
1504681586.84,49530,14.06,73716.8,4.91,5.51,5.51,0,*7A
1504681588.1,49531,14.06,73714.8,4.91,5.05,5.05,0,*7B
1504681589.31,49532,14.06,73710.5,4.95,5.11,5.05,0,*79
1504681590.51,49533,14.06,73710.3,4.93,5.15,5.15,0,*7B
1504681591.74,49534,14.06,73712.0,4.93,5.29,5.27,0,*72
1504681592.93,49535,14.06,73716.8,4.95,5.07,5.11,0,*7C
1504681594.15,49536,14.06,73720.5,4.95,5.51,5.51,0,*78
1504681595.33,49537,14.06,73724.0,4.95,5.29,5.41,0,*77
1504681596.54,49538,14.06,73722.5,4.97,5.11,5.11,0,*74
1504681597.77,49539,14.06,73718.8,4.97,3.11,2.95,0,*78
1504681599.03,49540,14.06,73720.3,4.93,2.25,2.13,0,*7A
1504681600.27,49541,14.06,73714.8,4.91,2.69,2.69,0,*7C
1504681601.5,49542,14.06,73708.0,4.89,3.41,3.41,0,*76
1504681602.68,49543,14.06,73706.3,4.89,3.63,3.59,0,*7E
1504681603.84,49544,14.06,73706.8,4.85,3.55,3.59,0,*70
1504681605.02,49545,14.06,73712.3,4.85,4.15,4.15,0,*7D
1504681606.2,49546,14.06,73712.3,4.85,4.19,4.15,0,*72
1504681607.37,49547,14.06,73714.5,4.85,4.37,4.27,0,*7E
1504681608.55,49548,14.06,73714.8,4.85,4.41,4.41,0,*70
1504681609.73,49549,14.06,73712.0,4.85,4.41,4.37,0,*70
1504681610.96,49550,14.06,73714.8,4.85,3.19,3.11,0,*71
1504681612.14,49551,14.06,73714.0,4.85,3.81,3.81,0,*78
1504681613.31,49552,14.06,73718.5,4.81,4.81,4.81,0,*7F
1504681614.49,49553,14.06,73718.8,4.81,5.07,5.07,0,*7E
1504681615.71,49554,14.06,73716.5,4.81,5.27,5.27,0,*79
1504681616.94,49555,14.06,73720.8,4.87,4.97,4.85,0,*7D
1504681618.18,49556,14.06,73716.3,4.87,4.81,4.71,0,*72
1504681619.36,49557,14.06,73720.0,4.85,5.07,5.07,0,*7E
1504681620.56,49558,14.06,73712.8,4.85,4.27,4.31,0,*76
1504681621.74,49559,14.06,73714.8,4.85,4.27,4.27,0,*70
1504681622.94,49560,14.06,73714.3,4.87,4.49,4.41,0,*70
1504681624.11,49561,14.06,73718.3,4.85,4.49,4.49,0,*7B
1504681625.34,49562,14.06,73722.3,4.85,4.63,4.63,0,*78
1504681626.57,49563,14.06,73720.8,4.85,4.75,4.75,0,*79
1504681627.81,49564,14.06,73722.5,4.85,4.97,4.97,0,*7E
1504681628.99,49565,14.06,73722.3,4.85,4.53,4.53,0,*7F
1504681630.16,49566,14.06,73718.5,4.85,4.85,4.81,0,*78
1504681631.4,49567,14.06,73718.0,4.85,5.01,5.01,0,*7D
1504681632.6,49568,14.06,73714.5,4.87,5.23,5.29,0,*7A
1504681633.85,49569,14.06,73712.3,4.87,5.51,5.55,0,*75
1504681635.02,49570,14.06,73716.5,4.89,5.59,5.63,0,*7E
1504681636.19,49571,14.06,73716.5,4.89,5.59,5.63,0,*7F
1504681637.37,49572,14.06,73716.0,4.89,5.63,5.63,0,*75
1504681638.57,49573,14.06,73718.0,4.89,5.71,5.81,0,*7B
1504681639.77,49574,14.06,73722.5,4.91,5.59,5.63,0,*73
1504681640.95,49575,14.06,73726.3,4.95,5.33,5.33,0,*7F
1504681642.13,49576,14.06,73718.3,4.95,5.41,5.33,0,*79
1504681643.33,49577,14.06,73716.5,4.93,5.29,5.37,0,*74
1504681644.58,49578,14.06,73716.0,4.93,5.27,5.27,0,*74
1504681645.77,49579,14.06,73720.0,4.95,5.67,5.67,0,*73
1504681646.98,49580,14.06,73720.5,4.95,5.99,6.13,0,*74
1504681648.2,49581,14.06,73722.0,4.97,6.11,6.13,0,*74
1504681649.43,49582,14.06,73718.8,4.99,6.47,6.53,0,*7E
1504681650.67,49583,14.06,73722.0,4.99,6.51,6.53,0,*78
1504681651.85,49584,14.06,73726.5,5.03,5.95,5.95,0,*7F
1504681653.03,49585,14.06,73726.0,5.03,5.59,5.59,0,*7E
1504681654.21,49586,14.06,73724.3,5.03,5.59,5.71,0,*77
1504681655.4,49587,14.06,73726.5,5.03,5.27,5.29,0,*72
1504681656.63,49588,14.06,73726.5,5.03,3.97,4.01,0,*7B
1504681657.86,49589,14.06,73726.5,5.01,3.89,4.01,0,*77
1504681659.03,49590,14.06,73720.5,5.07,4.85,4.81,0,*7A
1504681660.25,49591,14.06,73724.0,5.01,5.27,5.29,0,*77
1504681661.43,49592,14.06,73724.0,5.03,5.15,5.19,0,*74
1504681662.64,49593,14.06,73722.3,5.01,5.15,5.19,0,*77
1504681663.84,49594,14.06,73718.8,5.01,5.07,5.07,0,*7C
1504681665.08,49595,14.06,73722.8,5.03,5.01,5.05,0,*7B
1504681666.26,49596,14.06,73722.3,5.03,5.15,5.15,0,*7C
1504681667.51,49597,14.06,73724.3,5.01,4.93,4.93,0,*7F
1504681668.77,49598,14.06,73724.3,5.01,4.31,4.31,0,*70
1504681669.98,49599,14.06,73722.0,5.01,4.11,4.07,0,*76
1504681671.21,49600,14.06,73722.5,5.01,5.01,4.89,0,*73
1504681672.4,49601,14.06,73720.8,5.01,5.29,5.29,0,*73
1504681673.61,49602,14.06,73720.0,5.01,5.63,5.59,0,*79
1504681674.87,49603,14.06,73718.0,5.01,5.05,4.93,0,*7F
1504681676.12,49604,14.06,73718.5,5.01,3.41,3.37,0,*77
1504681677.37,49605,14.06,73718.3,4.97,2.01,2.01,0,*79
1504681678.61,49606,14.06,73716.8,4.93,1.85,1.83,0,*78
1504681679.87,49607,14.06,73716.8,4.93,2.09,2.01,0,*77
1504681681.09,49608,14.06,73712.3,4.89,2.55,2.43,0,*7C
1504681682.3,49609,14.06,73714.0,4.85,3.11,3.29,0,*7D
1504681683.5,49610,14.06,73710.3,4.87,4.11,4.11,0,*7C
1504681684.67,49611,14.06,73710.5,4.85,4.41,4.49,0,*77
1504681685.9,49612,14.06,73708.0,4.81,4.59,4.59,0,*78
1504681687.14,49613,14.06,73712.3,4.85,4.59,4.63,0,*74
1504681688.34,49614,14.06,73708.0,4.87,4.27,4.19,0,*75
1504681689.51,49615,14.06,73712.3,4.85,4.27,4.19,0,*76
1504681690.72,49616,14.06,73714.3,4.85,4.11,4.05,0,*7D
1504681691.95,49617,14.06,73712.8,4.87,4.01,3.93,0,*77
1504681693.12,49618,14.06,73716.5,4.85,4.11,4.11,0,*76
1504681694.31,49619,14.06,73718.8,4.81,4.07,4.07,0,*73
1504681695.48,49620,14.06,73714.0,4.81,4.27,4.23,0,*7D
1504681696.66,49621,14.06,73714.3,4.81,4.11,4.15,0,*7C
1504681697.89,49622,14.06,73714.0,4.79,3.03,2.95,0,*72
1504681699.15,49623,14.06,73708.3,4.79,2.59,2.55,0,*71
1504681700.35,49624,14.06,73700.5,4.77,2.89,2.91,0,*7D
1504681701.6,49625,14.06,73694.5,4.75,3.23,3.19,0,*7E
1504681702.81,49626,14.06,73698.0,4.75,3.89,3.89,0,*74
1504681704.02,49627,14.06,73700.8,4.75,4.15,4.07,0,*76
1504681705.24,49628,14.06,73708.5,4.75,4.49,4.59,0,*7B
1504681706.45,49629,14.06,73710.3,4.75,3.93,3.93,0,*7B
1504681707.68,49630,14.06,73714.3,4.73,3.71,3.71,0,*75
1504681708.88,49631,14.06,73708.3,4.75,4.41,4.49,0,*7A
1504681710.11,49632,14.06,73712.3,4.73,4.79,4.79,0,*77
1504681711.31,49633,14.06,73720.8,4.75,4.49,4.53,0,*7B
1504681712.57,49634,14.06,73716.3,4.75,4.63,4.63,0,*77
1504681713.75,49635,14.06,73716.3,4.77,4.41,4.41,0,*74
1504681714.96,49636,14.06,73720.8,4.73,4.37,4.31,0,*75
1504681716.17,49637,14.06,73722.8,4.73,4.89,4.97,0,*7D
1504681717.38,49638,14.06,73720.0,4.75,5.07,5.11,0,*7C
1504681718.63,49639,14.06,73722.5,4.75,4.59,4.59,0,*7A
1504681719.86,49640,14.06,73722.0,4.77,3.53,3.49,0,*7D
1504681721.12,49641,14.06,73728.3,4.75,3.37,3.49,0,*7C
1504681722.34,49642,14.06,73726.8,4.75,3.25,3.19,0,*79
1504681723.53,49643,14.06,73724.0,4.73,2.65,2.61,0,*75
1504681724.74,49644,14.06,73712.8,4.73,1.93,1.89,0,*7D
1504681725.95,49645,14.06,73716.3,4.67,2.31,2.27,0,*75
1504681727.2,49646,14.06,73718.8,4.63,1.43,1.29,0,*79
1504681728.43,49647,14.06,73720.3,4.61,2.47,2.39,0,*7F
1504681729.61,49648,14.13,73726.5,4.61,2.95,2.91,0,*7D
1504681730.81,49649,14.06,73726.5,4.57,3.03,2.91,0,*77
1504681732.08,49650,14.06,73726.0,4.55,3.15,3.15,0,*77
1504681733.31,49651,14.06,73724.5,4.53,3.49,3.41,0,*78